Location: Charlottesville
(38.0290°N, 78.4770°W)
Time: 09:48:55
(UTC-04:00)

Vanguard 3 - Visible Passes

Search period start: 19 July 2018 00:00
Search period end: 29 July 2018 00:00
Orbit: 508 x 3264 km, 33.3° (Epoch: 18 July)

Date Brightness Start Highest point End Pass type
(mag) Time Alt. Az. Time Alt. Az. Time Alt. Az.
19 Jul 7.6 22:38:12 10° W 22:46:27 49° SSW 22:47:53 41° SSE visible
20 Jul 8.2 21:21:39 10° W 21:32:37 63° S 21:38:07 14° ESE visible
20 Jul 8.6 23:37:53 10° W 23:42:41 26° SW 23:42:41 26° SW visible
21 Jul 8.0 22:21:30 10° W 22:30:36 48° SSW 22:32:54 34° SSE visible
22 Jul 8.4 21:04:39 10° W 21:16:40 63° S 21:23:07 11° ESE visible
22 Jul 8.7 23:21:27 10° W 23:27:41 27° SW 23:27:41 27° SW visible
23 Jul 8.4 22:04:41 10° W 22:14:39 46° SSW 22:17:54 27° SSE visible
24 Jul 8.7 20:47:33 10° W 21:00:36 63° SSW 21:07:47 10° ESE visible
24 Jul 8.8 23:04:55 10° W 23:12:00 26° SW 23:12:40 25° SSW visible
25 Jul 8.7 21:47:46 10° W 21:58:35 45° SSW 22:02:53 22° SSE visible
26 Jul 9.0 22:48:20 10° W 22:55:52 24° SW 22:57:40 22° SSW visible
27 Jul 9.1 21:30:45 10° W 21:42:25 43° SSW 21:47:55 17° SSE visible
28 Jul 9.3 22:31:39 10° W 22:39:37 23° SW 22:42:44 18° SSW visible
